EW5401 Weather Reports


Display with metric or nautical units.
time (UTC)temp
F
wind
direction
speed
MPH
gust
MPH
rain 1hr
in
rain 24hr
in
rain mn
in
humidity
%
barometer
mb
20260504043033 38 330 0.0 0.0 0.00 0.00 0.00 81 1010.9
20260504041532 37 330 0.0 0.0 0.00 0.00 0.00 81 1010.9
20260504040029 37 330 0.0 0.0 0.00 0.00 0.00 81 1010.8
20260504034529 37 330 0.0 0.0 0.00 0.00 0.00 79 1010.7
20260504033027 38 330 0.0 0.0 0.00 0.00 0.00 78 1010.6
20260504031528 38 330 0.0 0.0 0.00 0.00 0.00 76 1010.6
20260504030037 39 330 0.0 0.0 0.00 0.00 0.00 74 1010.5
20260504024527 40 330 0.0 0.0 0.00 0.00 0.00 73 1010.4
20260504023028 41 330 0.0 0.0 0.00 0.00 0.00 69 1010.6
20260504021528 41 330 0.0 0.0 0.00 0.00 0.00 67 1010.6
20260504020026 43 330 0.0 0.0 0.00 0.00 0.00 64 1010.6
20260504014526 44 330 0.0 0.0 0.00 0.00 0.00 62 1010.4
20260504013025 45 330 0.0 0.0 0.00 0.00 0.00 57 1010.2
20260504011524 47 330 0.0 0.0 0.00 0.00 0.00 52 1010.1
20260504010023 49 330 0.0 0.0 0.00 0.00 0.00 49 1009.9
20260504004524 50 330 0.0 0.0 0.00 0.00 0.00 45 1009.8
20260504003022 51 319 1.0 2.0 0.00 0.00 0.00 42 1009.7
20260504001524 51 322 0.0 3.0 0.00 0.00 0.00 41 1009.3
20260504000021 51 252 1.0 3.0 0.00 0.00 0.00 40 1009.2
20260503234534 52 313 1.0 6.0 0.00 0.00 0.00 38 1009.0
20260503233021 52 271 2.0 9.0 0.00 0.00 0.00 36 1008.8
20260503231520 53 331 1.0 10.0 0.00 0.00 0.00 35 1008.7
20260503230020 53 306 0.0 8.0 0.00 0.00 0.00 37 1008.6
20260503224519 54 252 2.0 11.0 0.00 0.00 0.00 35 1008.5
20260503223018 55 303 1.0 7.0 0.00 0.00 0.00 35 1008.4
20260503221522 55 327 3.0 14.0 0.00 0.00 0.00 36 1008.5
20260503220036 56 44 2.0 9.0 0.00 0.00 0.00 35 1008.5
20260503214517 56 243 1.0 10.0 0.00 0.00 0.00 34 1008.4
20260503213015 55 303 8.0 18.0 0.00 0.00 0.00 34 1008.4
20260503211512 55 339 2.0 12.0 0.00 0.00 0.00 35 1008.2
20260503210012 55 325 6.0 18.0 0.00 0.00 0.00 37 1008.3
20260503204509 54 265 2.0 18.0 0.00 0.00 0.00 38 1008.3
20260503203018 53 349 5.0 16.0 0.00 0.00 0.00 38 1008.5
20260503201506 53 29 5.0 28.0 0.00 0.00 0.00 40 1008.8
20260503200004 53 296 3.0 10.0 0.00 0.00 0.00 45 1008.7
20260503194600 51 323 5.0 13.0 0.00 0.00 0.00 47 1009.0
20260503194501 51 342 3.0 12.0 0.00 0.00 0.00 44 1009.0
20260503193110 50 272 7.0 23.0 0.00 0.00 0.00 43 1009.1
20260503191608 50 303 8.0 20.0 0.00 0.00 0.00 45 1009.3
20260503190059 50 271 7.0 14.0 0.00 0.00 0.00 44 1009.3
20260503184610 50 360 5.0 17.0 0.00 0.00 0.00 43 1009.5
20260503183109 50 265 3.0 13.0 0.00 0.00 0.00 43 1009.6
20260503181608 50 340 2.0 14.0 0.00 0.00 0.00 44 1009.4
20260503180056 49 267 7.0 16.0 0.00 0.00 0.00 42 1009.4
20260503174555 49 30 6.0 18.0 0.00 0.00 0.00 43 1009.3
20260503173100 50 275 7.0 14.0 0.00 0.00 0.00 45 1009.1
20260503171552 49 281 5.0 16.0 0.00 0.00 0.00 43 1009.2
20260503081611 35 56 0.0 0.0 0.00 0.13 0.00 79 1009.8
20260503071537 38 73 0.0 2.0 0.00 0.17 0.00 72 1010.0
20260503060122 40 257 0.0 5.0 0.00 0.21 0.00 67 1010.5
20260503054521 41 306 3.0 9.0 0.00 0.24 0.00 67 1010.6
20260503053020 41 288 2.0 10.0 0.00 0.24 0.00 65 1010.7
20260503051517 41 310 2.0 6.0 0.00 0.24 0.00 66 1010.9
20260503050027 41 317 1.0 5.0 0.00 0.24 0.00 64 1011.1
20260503044512 42 302 2.0 8.0 0.00 0.28 0.00 64 1011.1